YAHSAT 1B (38245 NORAD) Tracking and Keplerian Element Data

This shows tracking and keplerian element data for the satellite.

Feedback or suggestion? Click here.




ElementValue
Catalog38245
NameYAHSAT 1B
Epoch Orbit4060
Epoch Day34.76996362
Epoch Year2025
RAAN93.7241
Inclination0.0863
Eccentricity0.0003387
Argument of Perigee232.6906
Mean Anonmoly132.5339
Mean Motion1.00269208
Decay Rate1.31E-06
L11 38245U 12016A 25034.76996362 .00000131 00000+0 00000+0 0 9997
L22 38245 0.0863 93.7241 0003387 232.6906 132.5339 1.00269208 40600



Live tracking and technical data element details for YAHSAT 1B (NORAD 38245). YAHSAT 1B can be tracked NOW for your location showing map with azimuth and elevation plus other details from your city location.







IsCatalogInMostPopularTable: catalog: 38245, numindb: 575
Update: records affected: 1



GetName: 38245 YAHSAT 1B

Hit Count: updated at: Thu, 22 May 2025 04:15:21 GMT